Regional Weather Roundup
Issued by NWS

Home | Current Version | Previous Version | Graphics & Text | Print | Product List | Glossary On
Versions: 1 2 3 4 5 6 7 8 9 10 11 12 13 14 15 16 17 18 19 20 21 22 23 24 25 26 27 28 29 30 31 32 33 34 35 36 37 38 39 40 41 42 43 44 45 46 47 48 49 50
715
ASUS43 KDMX 160306
RWRIA

WEATHER ROUNDUP FOR IOWA
NATIONAL WEATHER SERVICE DES MOINES IA
900 PM CST SUN JAN 15 2017

NOTE: "FAIR" INDICATES FEW OR NO CLOUDS BELOW 12,000 FEET WITH NO
SIGNIFICANT WEATHER AND/OR OBSTRUCTIONS TO VISIBILITY.

* - THESE STATIONS ARE NOT NWS STATIONS...THUS NOT UNDER NWS
QUALITY CONTROL.  THEY ALSO DO NOT REPORT WEATHER SUCH
AS PRECIPITATION OR FOG.

IAZ001>003-012>014-020>022-031>034-043>046-160400-
   NORTHWEST IOWA

CITY           SKY/WX    TMP DP  RH WIND       PRES   REMARKS
CARROLL *      CLOUDY    32  32 100 SE12      30.17F FOG     WCI  23
CHEROKEE *     PTCLDY    26  23  87 E3        30.17S
DENISON *      CLOUDY    32  30  93 SE5       30.14F FOG     WCI  27
LE MARS *      PTCLDY    27  18  69 CALM      30.18R
ORANGE CITY *  CLOUDY    27  18  69 E3        30.16F
SHELDON *      CLOUDY    23  19  86 SE6       30.15F WCI  16
SIOUX CITY     CLOUDY    33  25  72 S8        30.17S WCI  26
SPENCER        PTCLDY    23  19  85 SE6       30.18F WCI  16
STORM LAKE *   CLOUDY    28  25  86 SE6       30.16F WCI  22
$$

IAZ055>058-069>071-079>083-090>094-160400-
   SOUTHWEST IOWA

CITY           SKY/WX    TMP DP  RH WIND       PRES   REMARKS
ATLANTIC *     CLOUDY    32  32 100 E6        30.16F FOG     WCI  26
AUDUBON *      MIX PCPN  30  28  93 SE6       30.17F WCI  24
CLARINDA *     CLOUDY    32  32 100 SE5       30.18F WCI  27
COUNCIL BLFS * CLOUDY    32  32 100 E7        30.14F WCI  26
CRESTON *      CLOUDY    30  30 100 E9        30.18F WCI  22
HARLAN  *      MIX PCPN  32  32 100 SE7       30.19F WCI  26
LAMONI         CLOUDY    31  30  96 VRB3      30.18R FOG
RED OAK *      MIX PCPN  32  32 100 E8        30.16F WCI  25
SHENANDOAH *   CLOUDY    32  32 100 E8        30.17F WCI  25
$$

IAZ047>049-059>061-072>074-084-160400-
   CENTRAL IOWA

CITY           SKY/WX    TMP DP  RH WIND       PRES   REMARKS
AMES           MIX PCPN  30  25  81 SE6       30.22F WCI  24
ANKENY *       CLOUDY    30  27  86 SE8       30.23F FOG     WCI  23
BOONE *        CLOUDY    30  27  86 SE12      30.20S WCI  21
CHARITON *     MIX PCPN  30  28  93 E8        30.20F WCI  23
DES MOINES     FRZ RAIN  31  27  85 SE8       30.22F FOG     WCI  23
GRINNELL*      CLOUDY    30  21  68 E7        30.23F WCI  23
KNOXVILLE *    CLOUDY    30  28  93 E7        30.21F FOG     WCI  23
MARSHALLTOWN   CLOUDY    30  20  66 E6        30.22F WCI  24
NEWTON *       CLOUDY    30  25  80 SE9       30.22F WCI  22
PELLA *        MIX PCPN  30  26  86 E7        30.24F WCI  23
PERRY *        DRIZZLE   31  29  94 SE6       30.20F WCI  25
$$

IAZ004>006-015-016-023>025-035-036-160400-
   NORTH CENTRAL IOWA

CITY           SKY/WX    TMP DP  RH WIND       PRES   REMARKS
ALGONA *       CLOUDY    27  21  80 E5        30.19F WCI  21
CLARION *      CLOUDY    27  25  93 E8        30.21F WCI  18
ESTHERVILLE    PTCLDY    22  20  92 S7        30.18F WCI  13
FORT DODGE *   CLOUDY    28  21  74 E7        30.20F WCI  21
MASON CITY     CLOUDY    17  14  88 SE3       30.24F
FOREST CITY *    N/A     21  19  93 SE5       30.22F WCI  15
WEBSTER CITY * CLOUDY    28  27  93 SE7       30.18F WCI  21
IOWA FALLS *   MOCLDY    29  24  82 E3        30.23F
$$

IAZ007>011-017>019-026>030-037>042-050>054-066-160400-
   NORTHEAST IOWA

CITY           SKY/WX    TMP DP  RH WIND       PRES   REMARKS
CEDAR RAPIDS   CLOUDY    30  16  56 E6        30.25S WCI  24
CHARLES CITY * CLOUDY    23  19  86 SE7       30.25S WCI  15
CLINTON *      PTCLDY    29  22  75 E6        30.29F WCI  23
DECORAH *      CLOUDY    21  16  79 SE3       30.25S
DUBUQUE        PTCLDY    27  18  69 E3        30.27F
MONTICELLO *   CLOUDY    30  18  59 SE5       30.27S WCI  25
OELWEIN *      CLOUDY    27  23  86 SE7       30.26S WCI  19
WATERLOO       CLOUDY    27  20  75 E5        30.25F WCI  22
$$

IAZ064-065-067-068-078-160400-
   EAST CENTRAL IOWA

CITY           SKY/WX    TMP DP  RH WIND       PRES   REMARKS
DAVENPORT      CLOUDY    30  21  69 E6        30.28F WCI  24
IOWA CITY      CLOUDY    32  19  58 SE5       30.28F WCI  27
MUSCATINE *    CLOUDY    34  21  60 E3        30.28F
QUAD CITIES    CLOUDY    32  24  72 E7        30.27F WCI  26
$$

IAZ062-063-075>077-085>089-095>099-160400-
   SOUTHEAST IOWA

CITY           SKY/WX    TMP DP  RH WIND       PRES   REMARKS
BURLINGTON     CLOUDY    32  28  85 E7        30.26S WCI  26
FAIRFIELD *    CLOUDY    30  27  86 E6        30.25S HAZE    WCI  24
FORT MADISON * MIX PCPN  32  27  80 E5        30.26F WCI  27
KEOKUK *       MIX PCPN  32  30  93 E8        30.25S WCI  25
OSKALOOSA *    MIX PCPN  29  26  89 E8        30.24F WCI  21
CENTERVILLE *  CLOUDY    30  28  93 CALM      30.21F
OTTUMWA        MIX PCPN  30  25  81 E8        30.22F WCI  22
WASHINGTON *   CLOUDY    30  25  80 E7        30.27S WCI  23
$$

ABBREVIATIONS USED IN REMARKS
   TC - TEMPERATURES IN CELSIUS
  WCI - WIND CHILL INDEX
   HX - HEAT INDEX
  VSB - VISIBILITY
$$





USA.gov is the U.S. government's official web portal to all federal, state and local government web resources and services.